[[{"header":{"parameterUnit":"m.s-1","parameterCategory":1,"la1":30.2991,"la2":30.254,"lo1":-89.0895,"lo2":-89.0444,"dy":0.0017,"dx":0.0017,"nx":28,"ny":28,"refTime":"2025-01-19T03:00:00:Z","depth":0,"parameterNumber":2,"parameterNumberName":"U-component_of_WINDS"},"data":[0,0,0,0,0,0,0,0,0,0,0,0,0,0,0,0,0,0,0,0,0,0,0,0,0,0,0,0,0,0,0,0,0,0,0,0,0,0,0,0,0,0,0,0,0,0,0,0,0,0,0,0,0,0,0,0,0,0,1.4413,1.4413,0,1.4433,1.4433,1.4434,1.4432,1.4431,1.4431,1.4431,1.4451,1.4452,1.4453,0,0,0,0,0,0,0,0,0,0,0,0,0,1.4374,1.4374,1.4413,1.4413,1.4413,1.4433,1.4433,1.4434,1.4432,1.4431,1.4431,1.4431,1.4451,1.4452,1.4453,0,0,0,0,0,0,0,0,0,0,0,0,0,1.4392,1.4375,1.4413,1.4415,1.4415,1.4433,1.4433,1.4434,1.4432,1.4431,1.4431,1.443,1.445,1.4452,1.4453,1.447,0,0,1.4457,1.4457,0,0,0,0,0,0,0,0,1.4391,1.4393,1.4414,1.4415,1.4415,1.4429,1.4427,1.4446,1.4432,1.4425,1.4431,1.443,1.4444,1.4446,1.4451,1.4471,1.4472,1.4457,1.4458,1.4458,1.4458,0,0,0,0,0,0,0,1.439,1.4393,1.4421,1.4415,1.4415,1.4415,1.4417,1.4431,1.4437,1.4426,1.4426,1.4428,1.4444,1.445,1.4451,1.4472,1.4457,1.4458,1.4459,1.4459,1.4509,1.4509,0,0,0,0,0,0,1.4388,1.4391,1.442,1.4421,1.4402,1.4416,1.4418,1.4425,1.4437,1.4438,1.4429,1.4428,1.4448,1.445,1.4452,1.4473,1.4458,1.4459,1.446,1.4508,1.4509,1.4509,0,0,0,0,0,0,1.4387,1.439,1.4419,1.4406,1.441,1.4417,1.4425,1.4426,1.4431,1.4439,1.444,1.4433,1.4447,1.445,1.4466,1.4474,1.446,1.4461,1.4507,1.4508,1.4509,1.4515,0,0,0,0,0,0,1.4386,1.439,1.4396,1.4407,1.4411,1.4433,1.4425,1.4427,1.4433,1.4433,1.4443,1.4444,1.4447,1.4464,1.4467,1.4475,1.4462,1.4507,1.4508,1.4509,1.4515,1.4516,1.4518,0,0,0,0,0,1.4385,1.4397,1.4397,1.44,1.4419,1.4433,1.4435,1.4438,1.4434,1.444,1.4446,1.4444,1.4473,1.4466,1.4469,1.4478,1.4506,1.4508,1.4509,1.4514,1.4516,1.4518,0,0,0,0,0,0,1.4387,1.4398,1.4398,1.4414,1.4423,1.4433,1.4441,1.4441,1.445,1.445,1.4453,1.4455,1.4471,1.4476,1.4468,1.4496,1.4489,1.4491,1.4492,1.4494,1.4496,1.4494,1.4463,0,0,0,0,0,1.4389,1.44,1.4409,1.4423,1.4427,1.4433,1.444,1.4441,1.445,1.4454,1.446,1.4469,1.448,1.4488,1.4498,1.4516,1.4518,1.4524,1.4525,1.4527,1.4528,1.4539,1.4542,1.4514,1.4514,1.4514,0,0,1.4394,1.4402,1.4408,1.4423,1.443,1.4441,1.4436,1.4448,1.4456,1.4456,1.4471,1.4476,1.4487,1.4504,1.4511,1.4508,1.4537,1.4529,1.453,1.453,1.4541,1.4543,1.4546,1.4515,1.4514,1.4514,0,0,1.4408,1.4415,1.4427,1.4435,1.4446,1.445,1.4453,1.4464,1.4467,1.4483,1.4483,1.4494,1.4512,1.452,1.4526,1.4546,1.4545,1.455,1.4558,1.4569,1.4571,1.4573,1.458,1.4583,1.4551,1.4551,1.4551,0,1.4413,1.443,1.4434,1.4446,1.4453,1.4454,1.4467,1.4474,1.4487,1.4492,1.4489,1.4514,1.452,1.454,1.4545,1.455,1.4554,1.4548,1.457,1.4572,1.4574,1.4581,1.4584,1.4552,1.4552,1.4552,1.4552,0,1.4435,1.4447,1.4455,1.4469,1.4477,1.449,1.4496,1.4504,1.4506,1.4511,1.4528,1.4537,1.4549,1.4554,1.4556,1.4574,1.4572,1.457,1.4563,1.4577,1.4584,1.4587,1.4552,1.4552,1.4552,1.4552,0,0,1.4449,1.4467,1.447,1.4477,1.449,1.4499,1.4512,1.4525,1.4532,1.4542,1.4554,1.4571,1.4569,1.4576,1.4579,1.4588,1.4604,1.4585,1.4585,1.4588,1.4626,1.4627,1.463,1.4604,1.4605,1.4605,1.4625,0,1.4465,1.4488,1.4493,1.4513,1.4524,1.4527,1.4538,1.4548,1.4553,1.4564,1.4571,1.4583,1.4579,1.4584,1.4593,1.46,1.4612,1.4599,1.4615,1.4615,1.4611,1.4634,1.4635,1.4653,1.4627,1.4628,1.4628,0,1.4486,1.4497,1.4518,1.4531,1.4536,1.4546,1.456,1.457,1.4582,1.4585,1.4594,1.4597,1.4611,1.4605,1.4625,1.4616,1.4623,1.4628,1.4629,1.463,1.4622,1.4635,1.4659,1.4661,1.4632,1.4632,1.4632,0,1.4494,1.4515,1.453,1.4536,1.4552,1.4559,1.4566,1.4577,1.4585,1.4597,1.4602,1.4616,1.4623,1.4633,1.4639,1.4634,1.466,1.4653,1.4663,1.4663,1.4667,1.4667,1.4692,1.4673,1.4673,1.4673,1.4673,0,1.4511,1.4524,1.4535,1.4544,1.4559,1.4566,1.458,1.4587,1.4598,1.4609,1.4612,1.4623,1.463,1.4642,1.4647,1.4664,1.4667,1.4671,1.4672,1.467,1.467,1.4674,1.4673,1.4674,1.4674,1.4673,1.4673,0,1.4522,1.453,1.4547,1.4561,1.4565,1.4575,1.4587,1.4597,1.4604,1.4618,1.4622,1.4632,1.4647,1.4654,1.4672,1.4676,1.4694,1.4695,1.469,1.4691,1.47,1.4699,1.4729,1.4733,1.4711,1.4711,1.4712,0,1.4531,1.4542,1.4557,1.4565,1.4572,1.4585,1.4594,1.4601,1.461,1.4625,1.4633,1.4648,1.466,1.4683,1.4692,1.4707,1.4707,1.4717,1.4709,1.4708,1.4707,1.4706,1.4708,1.4718,1.4718,1.4718,1.4718,0,1.4548,1.4552,1.4564,1.4578,1.4588,1.46,1.4611,1.4618,1.4627,1.4637,1.4652,1.4662,1.4681,1.4696,1.4711,1.4719,1.472,1.4721,1.4724,1.4722,1.4719,1.4721,1.4694,1.472,1.472,1.472,1.472,1.4719,1.4558,1.4568,1.4581,1.4595,1.4604,1.4615,1.4625,1.4634,1.4647,1.4663,1.4667,1.4683,1.4696,1.4717,1.4725,1.4738,1.4736,1.474,1.4741,1.4742,1.4742,1.4718,1.4741,1.4741,1.4741,1.4741,1.4741,0,1.4575,1.4583,1.4596,1.4613,1.4624,1.4625,1.4639,1.4648,1.4662,1.4674,1.4687,1.4705,1.472,1.4731,1.4747,1.4755,1.4756,1.4759,1.4758,1.476,1.4743,1.4739,1.4758,1.4758,1.4758,1.4758,1.4758,1.4758,1.4584,1.4601,1.4607,1.4628,1.4637,1.4653,1.4661,1.4671,1.4681,1.4701,1.4714,1.4721,1.4733,1.475,1.4764,1.4767,1.4773,1.4775,1.4778,1.4763,1.4761,1.4759,1.4755,1.4777,1.4777,1.4794,1.4794,1.4794]},{"header":{"parameterUnit":"m.s-1","parameterCategory":1,"la1":30.2991,"la2":30.254,"lo1":-89.0895,"lo2":-89.0444,"dy":0.0017,"dx":0.0017,"nx":28,"ny":28,"refTime":"2025-01-19T03:00:00:Z","depth":0,"parameterNumber":3,"parameterNumberName":"V-component_of_WINDS"},"data":[0,0,0,0,0,0,0,0,0,0,0,0,0,0,0,0,0,0,0,0,0,0,0,0,0,0,0,0,0,0,0,0,0,0,0,0,0,0,0,0,0,0,0,0,0,0,0,0,0,0,0,0,0,0,0,0,0,0,-8.2,-8.2002,0,-8.2187,-8.2189,-8.2191,-8.2105,-8.21,-8.2095,-8.2091,-8.2276,-8.2286,-8.2295,0,0,0,0,0,0,0,0,0,0,0,0,0,-8.1563,-8.1571,-8.2,-8.2003,-8.2005,-8.2187,-8.2189,-8.2192,-8.2106,-8.21,-8.2094,-8.2089,-8.2273,-8.2284,-8.2296,0,0,0,0,0,0,0,0,0,0,0,0,0,-8.1751,-8.1574,-8.2,-8.1984,-8.1984,-8.2186,-8.219,-8.2193,-8.2107,-8.21,-8.2093,-8.2086,-8.227,-8.2283,-8.2297,-8.2524,0,0,-8.234,-8.2346,0,0,0,0,0,0,0,0,-8.1741,-8.1768,-8.1984,-8.1985,-8.1986,-8.2116,-8.2103,-8.2304,-8.2109,-8.206,-8.2091,-8.2083,-8.2228,-8.2245,-8.2295,-8.2533,-8.2541,-8.2341,-8.2349,-8.2355,-8.2359,0,0,0,0,0,0,0,-8.1728,-8.1759,-8.2074,-8.1987,-8.1989,-8.1965,-8.1985,-8.2141,-8.2181,-8.2064,-8.2058,-8.2082,-8.2227,-8.2282,-8.2299,-8.2543,-8.2341,-8.2353,-8.2362,-8.2367,-8.2975,-8.2983,0,0,0,0,0,0,-8.1716,-8.1749,-8.2068,-8.208,-8.1844,-8.1979,-8.2,-8.2081,-8.2179,-8.2188,-8.2087,-8.2077,-8.2262,-8.2283,-8.2305,-8.2578,-8.2355,-8.2368,-8.2376,-8.2968,-8.2977,-8.2985,0,0,0,0,0,0,-8.1707,-8.1745,-8.206,-8.1913,-8.1951,-8.1994,-8.2085,-8.2088,-8.2143,-8.2197,-8.2203,-8.2136,-8.2257,-8.2286,-8.2471,-8.2583,-8.2375,-8.2387,-8.2958,-8.297,-8.2981,-8.3124,0,0,0,0,0,0,-8.1695,-8.1743,-8.1831,-8.1915,-8.1959,-8.2225,-8.2092,-8.2097,-8.2168,-8.2156,-8.2245,-8.2253,-8.2254,-8.245,-8.2485,-8.2598,-8.2398,-8.2949,-8.2964,-8.2978,-8.3109,-8.3139,-8.3164,0,0,0,0,0,-8.1679,-8.1862,-8.1836,-8.1875,-8.2071,-8.2232,-8.2256,-8.2256,-8.2178,-8.2266,-8.23,-8.225,-8.2565,-8.247,-8.2508,-8.2627,-8.2941,-8.2959,-8.2976,-8.3097,-8.3133,-8.3164,0,0,0,0,0,0,-8.1787,-8.1873,-8.1844,-8.206,-8.214,-8.2217,-8.2328,-8.2294,-8.2396,-8.238,-8.2373,-8.2394,-8.2585,-8.2624,-8.2517,-8.2852,-8.2741,-8.2767,-8.282,-8.2854,-8.2881,-8.2868,-8.241,0,0,0,0,0,-8.1837,-8.1962,-8.2029,-8.2213,-8.2254,-8.2285,-8.2355,-8.2348,-8.2428,-8.2461,-8.2509,-8.2588,-8.2704,-8.2781,-8.2891,-8.3114,-8.3132,-8.3215,-8.3242,-8.3265,-8.3287,-8.3407,-8.3445,-8.3043,-8.3043,-8.3042,0,0,-8.1939,-8.2001,-8.208,-8.2236,-8.2297,-8.2425,-8.2313,-8.2454,-8.2548,-8.2481,-8.266,-8.2698,-8.2785,-8.299,-8.3083,-8.3028,-8.3402,-8.3287,-8.3304,-8.3315,-8.3429,-8.3467,-8.3501,-8.3055,-8.3053,-8.3051,0,0,-8.2192,-8.2252,-8.2412,-8.2475,-8.2569,-8.2588,-8.2626,-8.2709,-8.2732,-8.2911,-8.2864,-8.2975,-8.3176,-8.3241,-8.33,-8.3577,-8.3534,-8.3613,-8.3756,-8.3874,-8.3905,-8.3933,-8.4032,-8.4068,-8.3635,-8.3635,-8.3635,0,-8.2307,-8.25,-8.2497,-8.2643,-8.2712,-8.2659,-8.282,-8.2881,-8.3006,-8.3054,-8.2992,-8.3244,-8.3299,-8.3518,-8.3586,-8.3635,-8.3678,-8.3603,-8.3901,-8.3929,-8.3955,-8.4049,-8.4087,-8.3644,-8.3643,-8.3642,-8.3641,0,-8.2637,-8.2772,-8.2889,-8.3013,-8.3096,-8.3248,-8.3267,-8.335,-8.3336,-8.3361,-8.3543,-8.3607,-8.373,-8.3781,-8.3767,-8.3999,-8.3962,-8.3901,-8.379,-8.4003,-8.4091,-8.4127,-8.3657,-8.3654,-8.3651,-8.3649,0,0,-8.2963,-8.3084,-8.3127,-8.3183,-8.3282,-8.3385,-8.3534,-8.3656,-8.3728,-8.3815,-8.3939,-8.4111,-8.4055,-8.4122,-8.4115,-8.4219,-8.4434,-8.4145,-8.4146,-8.4196,-8.4692,-8.4738,-8.4779,-8.4406,-8.4413,-8.4418,-8.4685,0,-8.3223,-8.3487,-8.3489,-8.3731,-8.3855,-8.3806,-8.3936,-8.401,-8.4037,-8.4145,-8.4173,-8.4295,-8.4213,-8.4253,-8.4353,-8.4387,-8.4533,-8.4367,-8.452,-8.4525,-8.45,-8.4826,-8.4874,-8.5123,-8.4719,-8.4725,-8.4729,0,-8.3561,-8.3662,-8.3917,-8.3999,-8.4051,-8.4168,-8.428,-8.4384,-8.4466,-8.4478,-8.4554,-8.4531,-8.4681,-8.4565,-8.4771,-8.4658,-8.4721,-8.4747,-8.4756,-8.477,-8.464,-8.4849,-8.5202,-8.5239,-8.4783,-8.4779,-8.4775,0,-8.3774,-8.3973,-8.4151,-8.42,-8.43,-8.4383,-8.4428,-8.4504,-8.4577,-8.4674,-8.4721,-8.4833,-8.4895,-8.4981,-8.4989,-8.4904,-8.5196,-8.5081,-8.521,-8.521,-8.5274,-8.527,-8.5642,-8.5314,-8.5313,-8.5312,-8.5312,0,-8.4064,-8.4222,-8.4248,-8.4358,-8.4533,-8.4533,-8.4706,-8.4743,-8.4811,-8.4926,-8.489,-8.4998,-8.5001,-8.5111,-8.5118,-8.5287,-8.5315,-8.5328,-8.5328,-8.5332,-8.533,-8.5372,-8.5355,-8.5322,-8.532,-8.5318,-8.5316,0,-8.4331,-8.4355,-8.4547,-8.4626,-8.465,-8.4775,-8.4842,-8.4946,-8.4969,-8.5115,-8.5149,-8.5186,-8.5314,-8.533,-8.5478,-8.5482,-8.5686,-8.5668,-8.566,-8.5657,-8.5785,-8.5773,-8.6198,-8.6253,-8.5888,-8.5892,-8.5895,0,-8.4515,-8.4636,-8.4729,-8.4804,-8.4855,-8.4976,-8.5051,-8.5055,-8.5134,-8.5237,-8.5329,-8.5453,-8.5553,-8.5759,-8.5797,-8.5911,-8.5894,-8.6036,-8.5911,-8.5911,-8.5897,-8.589,-8.5902,-8.606,-8.6064,-8.6067,-8.607,0,-8.4839,-8.4845,-8.4956,-8.5071,-8.5162,-8.5253,-8.5337,-8.54,-8.5415,-8.5505,-8.5637,-8.5714,-8.5867,-8.5991,-8.6103,-8.6146,-8.6111,-8.6109,-8.6144,-8.615,-8.614,-8.6147,-8.5726,-8.6099,-8.6096,-8.6094,-8.6092,-8.6091,-8.5071,-8.5176,-8.5258,-8.5382,-8.5447,-8.5527,-8.5629,-8.5666,-8.5776,-8.5902,-8.5897,-8.6042,-8.612,-8.6267,-8.6319,-8.643,-8.6383,-8.6435,-8.6448,-8.6461,-8.6474,-8.6123,-8.645,-8.645,-8.6449,-8.6448,-8.6448,0,-8.5393,-8.5443,-8.5558,-8.5679,-8.5776,-8.5736,-8.5828,-8.5911,-8.604,-8.6117,-8.6217,-8.6367,-8.6487,-8.6535,-8.6652,-8.6732,-8.6719,-8.6763,-8.6757,-8.6768,-8.6509,-8.6467,-8.6772,-8.6772,-8.6772,-8.6772,-8.6772,-8.6772,-8.5572,-8.5748,-8.5764,-8.5971,-8.6019,-8.6163,-8.6219,-8.6292,-8.6353,-8.6524,-8.6624,-8.6656,-8.6721,-8.6842,-8.695,-8.6961,-8.7005,-8.7057,-8.7061,-8.6818,-8.6786,-8.6755,-8.6715,-8.7067,-8.7067,-8.7309,-8.7312,-8.7313]}]]